Massena, NY

6:26 AM EDT on March 24, 2017 (GMT -0400)
Massena International-Richards

Weather History for KMSS - May, 2014

Change the Weather History Date:

Monday, May 5, 2014

  Actual Average Record
Temperature  
Mean Temperature 48 °F 52 °F  
Max Temperature 55 °F 63 °F 80 °F (1955)
Min Temperature 41 °F 40 °F 20 °F (1974)
Degree Days  
Heating Degree Days 16 13  
Month to date heating degree days 71  
Since 1 July heating degree days 7853  
Cooling Degree Days 0 0  
Month to date cooling degree days 0 0  
Year to date cooling degree days 0 1  
Moisture  
Dew Point 37 °F    
Average Humidity 66    
Maximum Humidity 82    
Minimum Humidity 50    
Precipitation  
Precipitation 0.00 in 0.10 in 0.77 in (1990)
Month to date precipitation 0.47 0.48  
Year to date precipitation 8.29 9.34  
Sea Level Pressure  
Sea Level Pressure 29.92 in    
Wind  
Wind Speed 8 mph (West)    
Max Wind Speed 16 mph    
Max Gust Speed 21 mph    
Visibility 10 miles    
Events      
T = Trace of Precipitation, MM = Missing Value Source: NWS Daily Summary

Daily Weather History Graph

Daily Weather History Graph

Search for Another Location

Airport or City:

Trip Planner

Search our weather history database for the weather conditions in past years. The results will help you decide how hot, cold, wet, or windy it might be!

Date:

Astronomy

May. 05, 2014 Rise Set
Actual Time 5:43 AM EDT 8:09 PM EDT
Civil Twilight 5:10 AM EDT 8:42 PM EDT
Nautical Twilight 4:29 AM EDT 9:23 PM EDT
Astronomical Twilight 3:43 AM EDT 10:10 PM EDT
Moon 11:01 AM EDT (5/5) 12:52 AM EDT (5/5)
Length of Visible Light 15h 32m
Length of Day
14h 26m
Waxing Crescent, 36% of the Moon is Illuminated
May 5
Waxing Crescent
May 6
First Quarter
May 14
Full
May 21
Last Quarter
May 28
New

Hourly Weather History & Observations

Time (EDT) Temp. Windchill Dew Point Humidity Pressure Visibility Wind Dir Wind Speed Gust Speed Precip Events Conditions
12:53 AM 48.0 °F - 41.0 °F 77% 29.82 in 10.0 mi NW 16.1 mph 20.7 mph N/A   Overcast
1:53 AM 46.0 °F 41.0 °F 41.0 °F 83% 29.83 in 10.0 mi West 10.4 mph - N/A   Overcast
2:53 AM 45.0 °F 40.6 °F 37.9 °F 76% 29.85 in 10.0 mi West 8.1 mph - N/A   Overcast
3:53 AM 44.1 °F 40.1 °F 37.9 °F 79% 29.86 in 10.0 mi West 6.9 mph - N/A   Overcast
4:53 AM 44.1 °F 39.0 °F 37.0 °F 76% 29.88 in 10.0 mi West 9.2 mph - N/A   Overcast
5:53 AM 43.0 °F 38.8 °F 37.0 °F 80% 29.91 in 10.0 mi West 6.9 mph - N/A   Overcast
6:53 AM 43.0 °F 38.2 °F 36.0 °F 76% 29.93 in 10.0 mi West 8.1 mph - N/A   Overcast
7:53 AM 43.0 °F 37.7 °F 36.0 °F 76% 29.95 in 10.0 mi West 9.2 mph - N/A   Overcast
8:53 AM 44.1 °F 38.1 °F 36.0 °F 73% 29.96 in 10.0 mi WNW 11.5 mph - N/A   Overcast
9:53 AM 44.1 °F 38.1 °F 35.1 °F 71% 29.98 in 10.0 mi NW 11.5 mph - N/A   Overcast
10:53 AM 45.0 °F 38.5 °F 36.0 °F 71% 29.98 in 10.0 mi West 13.8 mph - N/A   Overcast
11:53 AM 46.9 °F - 36.0 °F 66% 29.97 in 10.0 mi WNW 8.1 mph - N/A   Overcast
12:53 PM 48.9 °F - 37.0 °F 64% 29.97 in 10.0 mi West 9.2 mph - N/A   Overcast
1:53 PM 50.0 °F - 37.4 °F 62% 29.96 in 10.0 mi West 13.8 mph - N/A   Overcast
2:53 PM 53.1 °F - 37.9 °F 57% 29.94 in 10.0 mi WNW 9.2 mph - N/A   Overcast
3:53 PM 53.1 °F - 37.0 °F 55% 29.93 in 10.0 mi WNW 8.1 mph - N/A   Overcast
4:53 PM 54.0 °F - 37.0 °F 53% 29.93 in 10.0 mi West 6.9 mph - N/A   Overcast
5:53 PM 54.0 °F - 37.9 °F 55% 29.91 in 10.0 mi WSW 9.2 mph - N/A   Overcast
6:53 PM 54.0 °F - 36.0 °F 51% 29.91 in 10.0 mi West 6.9 mph - N/A   Overcast
7:53 PM 53.1 °F - 36.0 °F 52% 29.91 in 10.0 mi West 3.5 mph - N/A   Overcast
8:53 PM 50.0 °F - 36.0 °F 59% 29.92 in 10.0 mi West 3.5 mph - N/A   Clear
9:53 PM 46.0 °F 43.9 °F 37.9 °F 73% 29.93 in 10.0 mi WSW 4.6 mph - N/A   Mostly Cloudy
10:53 PM 46.0 °F 44.8 °F 37.9 °F 73% 29.93 in 10.0 mi West 3.5 mph - N/A   Mostly Cloudy
11:53 PM 46.4 °F 45.2 °F 35.6 °F 66% 29.93 in 10.0 mi West 3.5 mph - N/A   Mostly Cloudy